Weather History for Nellis AFB, NV

Change the Weather History Date:

Thursday, November 28, 2013

  Actual Average Record
Temperature  
Mean Temperature 50 °F -  
Max Temperature 60 °F 59 °F 68 °F (1998)
Min Temperature 41 °F 37 °F 30 °F (2001)
Degree Days  
Heating Degree Days 14    
Moisture  
Dew Point 37 °F    
Average Humidity 64    
Maximum Humidity 86    
Minimum Humidity 40    
Precipitation  
Precipitation 0.00 in - - ()
Sea Level Pressure  
Sea Level Pressure 30.08 in    
Wind  
Wind Speed 5 mph (NE)    
Max Wind Speed 17 mph    
Max Gust Speed -    
Visibility 10 miles    
Events      
Averages and records for this station are not official NWS values.
T = Trace of Precipitation, MM = Missing Value Source: NWS Daily Summary

Daily Weather History Graph

Daily Weather History Graph

Search for Another Location

Airport:

Trip Planner

Search our weather history database for the weather conditions in past years. The results will help you decide how hot, cold, wet, or windy it might be!

Date:

Astronomy

Nov. 28, 2013 Rise Set
Actual Time 6:30 AM PST 4:25 PM PST
Civil Twilight 6:02 AM PST 4:54 PM PST
Nautical Twilight 5:30 AM PST 5:25 PM PST
Astronomical Twilight 4:59 AM PST 5:56 PM PST
Moon 1:44 AM PST (11/28) 1:31 PM PST (11/28)
Length of Visible Light 10h 51m
Length of Day
9h 55m
Waning Crescent, 21% of the Moon is Illuminated
Nov 28
Waning Crescent
Dec 2
New
Dec 9
First Quarter
Dec 17
Full
Dec 25
Last Quarter

Hourly Weather History & Observations

Time (PST) Temp. Windchill Dew Point Humidity Pressure Visibility Wind Dir Wind Speed Gust Speed Precip Events Conditions
12:58 AM 46.2 °F - 37.4 °F 71% 30.03 in 10.0 mi NNE 1.2 mph - N/A   Clear
1:58 AM 48.9 °F - 36.7 °F 63% 30.01 in 10.0 mi ENE 10.4 mph - N/A   Mostly Cloudy
2:58 AM 44.8 °F 43.3 °F 37.8 °F 76% 30.04 in 10.0 mi NNW 3.5 mph - N/A   Clear
3:58 AM 43.0 °F - 37.4 °F 81% 30.04 in 10.0 mi NNW 1.2 mph - N/A   Clear
4:58 AM 43.5 °F - 37.2 °F 78% 30.06 in 10.0 mi NNW 2.3 mph - N/A   Clear
5:58 AM 42.8 °F - 36.7 °F 79% 30.08 in 10.0 mi West 1.2 mph - N/A   Clear
6:58 AM 41.2 °F 39.2 °F 37.2 °F 86% 30.09 in 10.0 mi NE 3.5 mph - N/A   Clear
7:58 AM 43.3 °F 41.7 °F 37.9 °F 81% 30.11 in 10.0 mi SSE 3.5 mph - N/A   Clear
8:58 AM 48.0 °F - 38.1 °F 69% 30.11 in 10.0 mi NNE 2.3 mph - N/A   Clear
9:58 AM 54.3 °F - 38.5 °F 55% 30.09 in 10.0 mi ENE 10.4 mph - N/A   Clear
10:58 AM 57.4 °F - 36.5 °F 46% 30.08 in 10.0 mi NE 11.5 mph - N/A   Clear
11:58 AM 59.0 °F - 34.7 °F 40% 30.05 in 10.0 mi ENE 17.3 mph - N/A   Clear
12:58 PM 59.4 °F - 36.3 °F 42% 30.04 in 10.0 mi ENE 11.5 mph - N/A   Clear
1:58 PM 60.3 °F - 36.9 °F 42% 30.03 in 10.0 mi ENE 13.8 mph - N/A   Clear
2:58 PM 60.4 °F - 35.6 °F 40% 30.04 in 10.0 mi NE 10.4 mph - N/A   Clear
3:58 PM 59.0 °F - 36.0 °F 42% 30.05 in 10.0 mi ENE 10.4 mph - N/A   Clear
4:58 PM 54.9 °F - 37.0 °F 51% 30.06 in 10.0 mi ENE 6.9 mph - N/A   Clear
5:58 PM 51.8 °F - 37.6 °F 58% 30.08 in 10.0 mi East 9.2 mph - N/A   Clear
6:58 PM 51.3 °F - 38.1 °F 61% 30.11 in 10.0 mi North 4.6 mph - N/A   Clear
7:58 PM 48.4 °F - 38.5 °F 69% 30.13 in 10.0 mi ENE 4.6 mph - N/A   Clear
8:58 PM 46.8 °F - 37.6 °F 70% 30.13 in 10.0 mi ENE 4.6 mph - N/A   Clear
9:58 PM 45.3 °F - 37.9 °F 75% 30.14 in 10.0 mi NE 1.2 mph - N/A   Clear
10:58 PM 43.9 °F - 37.8 °F 79% 30.15 in 10.0 mi Calm Calm - N/A   Clear
11:58 PM 43.0 °F - 37.9 °F 82% 30.15 in 10.0 mi NE 2.3 mph - N/A   Clear